• In Uzbekistan
  • List of Countries
  • For 7 days
  • Water Temperature
  • Satellite Maps
  • Weather Map
  • Weather Widgets
  • user-avatar
    Login

    Hourly Weather Skorodne

    Today, 26 September, Wednesday

    Time Temperature Precipitation Wind Pressure Humidity
    00:00 +2°C° 0 mm 2 mps 727 mmHg 78%
    01:00 +1°C° 0 mm 2 mps 727 mmHg 80%
    02:00 +1°C° 0 mm 1 mps 727 mmHg 86%
    03:00 +1°C° 0 mm 1 mps 728 mmHg 87%
    04:00 +1°C° 0 mm 1 mps 728 mmHg 88%
    05:00 +1°C° 0 mm 1 mps 728 mmHg 89%
    06:00 +2°C° 0 mm 1 mps 728 mmHg 85%
    07:00 +3°C° 0 mm 1 mps 729 mmHg 80%
    08:00 +4°C° 0 mm 1 mps 729 mmHg 76%
    09:00 +6°C° 0 mm 1 mps 729 mmHg 65%
    10:00 +7°C° 0 mm 2 mps 729 mmHg 55%
    11:00 +9°C° 0 mm 2 mps 729 mmHg 45%
    12:00 +10°C° 0 mm 2 mps 729 mmHg 42%
    13:00 +12°C° 0 mm 1 mps 728 mmHg 39%
    14:00 +13°C° 0 mm 1 mps 728 mmHg 36%
    15:00 +13°C° 0 mm 1 mps 727 mmHg 40%
    16:00 +12°C° 0 mm 1 mps 727 mmHg 45%
    17:00 +12°C° 0 mm 1 mps 726 mmHg 49%
    18:00 +9°C° 0 mm 2 mps 726 mmHg 51%
    19:00 +8°C° 0 mm 2 mps 726 mmHg 52%
    20:00 +6°C° 0 mm 2 mps 726 mmHg 54%
    21:00 +6°C° 0 mm 2 mps 726 mmHg 54%
    22:00 +5°C° 0 mm 3 mps 726 mmHg 55%
    23:00 +5°C° 0 mm 3 mps 725 mmHg 55%

    Tomorrow, 27 September, Thursday

    Time Temperature Precipitation Wind Pressure Humidity
    00:00 +5°C° 0 mm 3 mps 725 mmHg 55%
    01:00 +7°C° 0 mm 3 mps 725 mmHg 55%
    02:00 +7°C° 0 mm 3 mps 725 mmHg 55%
    03:00 +6°C° 0 mm 4 mps 724 mmHg 54%
    04:00 +6°C° 0 mm 4 mps 724 mmHg 53%
    05:00 +6°C° 0 mm 4 mps 724 mmHg 52%
    06:00 +6°C° 0 mm 4 mps 723 mmHg 53%
    07:00 +6°C° 0 mm 4 mps 723 mmHg 53%
    08:00 +6°C° 0 mm 4 mps 723 mmHg 54%
    09:00 +6°C° 0 mm 4 mps 723 mmHg 54%
    10:00 +7°C° 0 mm 4 mps 723 mmHg 54%
    11:00 +7°C° 0 mm 4 mps 723 mmHg 55%
    12:00 +8°C° 0 mm 4 mps 723 mmHg 54%
    13:00 +10°C° 0 mm 4 mps 723 mmHg 54%
    14:00 +10°C° 0 mm 4 mps 723 mmHg 54%
    15:00 +11°C° 0 mm 3 mps 723 mmHg 55%
    16:00 +11°C° 0 mm 3 mps 722 mmHg 55%
    17:00 +11°C° 0 mm 3 mps 722 mmHg 56%
    18:00 +9°C° 0 mm 3 mps 722 mmHg 60%
    19:00 +8°C° 0 mm 3 mps 722 mmHg 63%
    20:00 +7°C° 0 mm 2 mps 722 mmHg 66%
    21:00 +6°C° 0 mm 2 mps 721 mmHg 66%
    22:00 +6°C° 0 mm 2 mps 721 mmHg 66%
    23:00 +6°C° 0 mm 2 mps 721 mmHg 66%

    Day after tomorrow, 28 September, Friday

    Time Temperature Precipitation Wind Pressure Humidity
    00:00 +6°C° 0 mm 2 mps 721 mmHg 67%
    01:00 +6°C° 0 mm 2 mps 720 mmHg 67%
    02:00 +6°C° 0 mm 2 mps 720 mmHg 68%
    03:00 +6°C° 0 mm 2 mps 719 mmHg 68%
    04:00 +6°C° 0 mm 2 mps 719 mmHg 68%
    05:00 +6°C° 0 mm 2 mps 718 mmHg 68%
    06:00 +7°C° 0 mm 3 mps 718 mmHg 66%
    07:00 +8°C° 0 mm 3 mps 718 mmHg 63%
    08:00 +9°C° 0 mm 3 mps 718 mmHg 61%
    09:00 +11°C° 0 mm 4 mps 718 mmHg 56%
    10:00 +12°C° 0 mm 4 mps 718 mmHg 52%
    11:00 +14°C° 0 mm 4 mps 718 mmHg 47%
    12:00 +15°C° 0 mm 4 mps 717 mmHg 47%
    13:00 +17°C° 0 mm 4 mps 717 mmHg 47%
    14:00 +18°C° 0 mm 3 mps 716 mmHg 46%
    15:00 +17°C° 0 mm 3 mps 716 mmHg 50%
    16:00 +17°C° 0 mm 2 mps 716 mmHg 54%
    17:00 +16°C° 0 mm 2 mps 715 mmHg 58%
    18:00 +15°C° 0 mm 2 mps 715 mmHg 61%
    19:00 +13°C° 0 mm 1 mps 715 mmHg 63%
    20:00 +12°C° 0 mm 1 mps 715 mmHg 66%
    21:00 +12°C° 0 mm 1 mps 716 mmHg 70%
    22:00 +11°C° 0 mm 1 mps 716 mmHg 73%
    23:00 +11°C° 0 mm 1 mps 716 mmHg 77%

    29 September, Saturday

    Time Temperature Precipitation Wind Pressure Humidity
    00:00 +11°C° 0.1 mm 1 mps 716 mmHg 81%
    01:00 +11°C° 0.1 mm 1 mps 716 mmHg 85%
    02:00 +11°C° 0.1 mm 1 mps 716 mmHg 89%
    03:00 +9°C° 0.3 mm 2 mps 716 mmHg 90%
    04:00 +9°C° 0.3 mm 2 mps 716 mmHg 91%
    05:00 +9°C° 0.3 mm 2 mps 716 mmHg 92%
    06:00 +9°C° 0.7 mm 3 mps 716 mmHg 92%
    07:00 +8°C° 0.7 mm 3 mps 716 mmHg 92%
    08:00 +8°C° 0.7 mm 3 mps 717 mmHg 92%
    09:00 +8°C° 0.9 mm 3 mps 717 mmHg 91%
    10:00 +8°C° 0.9 mm 3 mps 717 mmHg 89%
    11:00 +8°C° 0.9 mm 3 mps 718 mmHg 88%
    12:00 +7°C° 0.4 mm 4 mps 718 mmHg 86%
    13:00 +7°C° 0.4 mm 4 mps 718 mmHg 83%
    14:00 +7°C° 0.4 mm 4 mps 718 mmHg 81%
    15:00 +7°C° 0.1 mm 4 mps 719 mmHg 78%
    16:00 +7°C° 0.1 mm 4 mps 719 mmHg 76%
    17:00 +8°C° 0.1 mm 4 mps 719 mmHg 73%
    18:00 +6°C° 0 mm 4 mps 720 mmHg 74%
    19:00 +5°C° 0 mm 4 mps 720 mmHg 74%
    20:00 +4°C° 0 mm 3 mps 720 mmHg 75%
    21:00 +4°C° 0 mm 3 mps 721 mmHg 76%
    22:00 +3°C° 0 mm 3 mps 721 mmHg 77%
    23:00 +3°C° 0 mm 3 mps 721 mmHg 78%

    30 September, Sunday

    Time Temperature Precipitation Wind Pressure Humidity
    00:00 +2°C° 0 mm 3 mps 721 mmHg 79%
    01:00 +3°C° 0 mm 2 mps 721 mmHg 81%
    02:00 +2°C° 0 mm 2 mps 721 mmHg 83%
    03:00 +2°C° 0 mm 2 mps 721 mmHg 84%
    04:00 +2°C° 0 mm 2 mps 721 mmHg 85%
    05:00 +2°C° 0 mm 2 mps 721 mmHg 86%
    06:00 +2°C° 0 mm 2 mps 721 mmHg 83%
    07:00 +3°C° 0 mm 2 mps 721 mmHg 80%
    08:00 +4°C° 0 mm 2 mps 722 mmHg 77%
    09:00 +5°C° 0 mm 3 mps 722 mmHg 69%
    10:00 +8°C° 0 mm 3 mps 722 mmHg 61%
    11:00 +10°C° 0 mm 3 mps 722 mmHg 53%
    12:00 +11°C° 0 mm 3 mps 721 mmHg 51%
    13:00 +12°C° 0 mm 3 mps 721 mmHg 50%
    14:00 +13°C° 0 mm 3 mps 720 mmHg 48%
    15:00 +13°C° 0 mm 2 mps 720 mmHg 52%
    16:00 +13°C° 0 mm 2 mps 720 mmHg 57%
    17:00 +12°C° 0 mm 2 mps 719 mmHg 61%
    18:00 +9°C° 0 mm 2 mps 719 mmHg 68%
    19:00 +7°C° 0 mm 2 mps 719 mmHg 76%
    20:00 +6°C° 0 mm 1 mps 719 mmHg 83%
    21:00 +6°C° 0 mm 1 mps 718 mmHg 84%
    22:00 +6°C° 0 mm 1 mps 718 mmHg 84%
    23:00 +6°C° 0 mm 1 mps 718 mmHg 85%

    1 October, Monday

    Time Temperature Precipitation Wind Pressure Humidity
    00:00 +6°C° 0 mm 1 mps 717 mmHg 84%
    01:00 +6°C° 0 mm 1 mps 717 mmHg 82%
    02:00 +6°C° 0 mm 1 mps 717 mmHg 81%
    03:00 +6°C° 0 mm 1 mps 716 mmHg 81%
    04:00 +6°C° 0 mm 1 mps 716 mmHg 81%
    05:00 +6°C° 0 mm 1 mps 715 mmHg 81%
    06:00 +7°C° 0 mm 1 mps 715 mmHg 78%
    07:00 +8°C° 0 mm 1 mps 715 mmHg 76%
    08:00 +9°C° 0 mm 1 mps 715 mmHg 74%
    09:00 +11°C° 0 mm 1 mps 715 mmHg 67%
    10:00 +13°C° 0 mm 2 mps 715 mmHg 61%
    11:00 +15°C° 0 mm 2 mps 715 mmHg 54%
    12:00 +16°C° 0 mm 2 mps 714 mmHg 53%
    13:00 +17°C° 0 mm 2 mps 714 mmHg 51%
    14:00 +18°C° 0 mm 2 mps 713 mmHg 50%
    15:00 +17°C° 0 mm 2 mps 713 mmHg 56%
    16:00 +15°C° 0 mm 2 mps 712 mmHg 61%
    17:00 +14°C° 0 mm 1 mps 712 mmHg 67%
    18:00 +13°C° 0.1 mm 1 mps 712 mmHg 71%
    19:00 +12°C° 0.1 mm 1 mps 712 mmHg 76%
    20:00 +11°C° 0.1 mm 1 mps 712 mmHg 80%
    21:00 +11°C° 0.1 mm 1 mps 712 mmHg 83%
    22:00 +10°C° 0.1 mm 1 mps 712 mmHg 85%
    23:00 +10°C° 0.1 mm 1 mps 712 mmHg 88%
    Show more